Regional Weather Roundup
Issued by NWS

Home | Current Version | Previous Version | Graphics & Text | Print | Product List | Glossary Off
Versions: 1 2 3 4 5 6 7 8 9 10 11 12 13 14 15 16 17 18 19 20 21 22 23 24 25 26 27 28 29 30 31 32 33 34 35 36 37 38 39 40 41 42 43 44 45 46 47 48 49 50

000
ASUS43 KBIS 282001
RWRND

NORTH DAKOTA REGIONAL WEATHER ROUNDUP
NATIONAL WEATHER SERVICE BISMARCK ND
300 PM CDT TUE APR 28 2015

NOTE: "FAIR" INDICATES FEW OR NO CLOUDS BELOW 12,000 FEET WITH NO
SIGNIFICANT WEATHER AND/OR OBSTRUCTIONS TO VISIBILITY.


NDZ001>003-009>011-017-282100-
NORTHWEST NORTH DAKOTA

CITY           SKY/WX    TMP DP  RH WIND       PRES   REMARKS
WILLISTON      SUNNY     66  32  28 S9G20     30.19F
MINOT          SUNNY     65  32  29 VRB6      30.19F
MINOT AFB      MOSUNNY   65  33  30 W7        30.18F
$$

NDZ018>021-031>035-040>046-282100-
SOUTHWEST NORTH DAKOTA

CITY           SKY/WX    TMP DP  RH WIND       PRES   REMARKS
BISMARCK       SUNNY     65  28  24 VRB3      30.22F
DICKINSON      SUNNY     62  35  36 S9        30.20F
GARRISON         N/A     63  24  22 CALM      30.21F
HETTINGER ARPT SUNNY     59  34  39 SE12      30.23F
$$

NDZ004>008-012>016-024-026-027-054-282100-
NORTHEAST NORTH DAKOTA

CITY           SKY/WX    TMP DP  RH WIND       PRES   REMARKS
GRAND FORKS    MOSUNNY   64  33  31 N6        30.18F
GRND FRKS AFB  SUNNY     64  32  30 VRB6      30.19F
DEVILS LAKE    SUNNY     63  30  29 N7        30.18F
$$

NDZ022-023-025-028>030-036>039-047>053-282100-
SOUTHEAST NORTH DAKOTA

CITY           SKY/WX    TMP DP  RH WIND       PRES   REMARKS
FARGO          SUNNY     64  34  32 N10       30.19F
JAMESTOWN      SUNNY     64  32  30 VRB5      30.19F
$$



USA.gov is the U.S. government's official web portal to all federal, state and local government web resources and services.